• In Hungary
  • List of Countries
  • For 7 days
  • Water Temperature
  • Satellite Maps
  • Weather Map
  • News
  • Weather Widgets
  • user-avatar
    Login

    Hourly Weather Krasnopole

    Today, 19 September, Wednesday

    Time Temperature Precipitation Wind Pressure Humidity
    00:00 +14°C° 0 mm 2 mps 750 mmHg 81%
    01:00 +14°C° 0 mm 2 mps 750 mmHg 83%
    02:00 +14°C° 0 mm 2 mps 750 mmHg 85%
    03:00 +13°C° 0 mm 2 mps 750 mmHg 87%
    04:00 +13°C° 0 mm 2 mps 751 mmHg 88%
    05:00 +13°C° 0 mm 2 mps 751 mmHg 90%
    06:00 +14°C° 0 mm 2 mps 751 mmHg 83%
    07:00 +16°C° 0 mm 2 mps 751 mmHg 77%
    08:00 +17°C° 0 mm 2 mps 751 mmHg 71%
    09:00 +19°C° 0 mm 3 mps 751 mmHg 64%
    10:00 +21°C° 0 mm 3 mps 751 mmHg 57%
    11:00 +23°C° 0 mm 4 mps 751 mmHg 50%
    12:00 +25°C° 0 mm 4 mps 751 mmHg 48%
    13:00 +25°C° 0 mm 4 mps 751 mmHg 46%
    14:00 +26°C° 0 mm 4 mps 751 mmHg 44%
    15:00 +25°C° 0 mm 4 mps 750 mmHg 48%
    16:00 +24°C° 0 mm 3 mps 750 mmHg 52%
    17:00 +23°C° 0 mm 2 mps 750 mmHg 57%
    18:00 +21°C° 0 mm 2 mps 750 mmHg 61%
    19:00 +20°C° 0 mm 2 mps 750 mmHg 65%
    20:00 +18°C° 0 mm 2 mps 750 mmHg 69%
    21:00 +18°C° 0 mm 3 mps 750 mmHg 72%
    22:00 +17°C° 0 mm 3 mps 750 mmHg 75%
    23:00 +17°C° 0 mm 3 mps 750 mmHg 78%

    Tomorrow, 20 September, Thursday

    Time Temperature Precipitation Wind Pressure Humidity
    00:00 +17°C° 0 mm 2 mps 750 mmHg 80%
    01:00 +16°C° 0 mm 2 mps 750 mmHg 82%
    02:00 +16°C° 0 mm 2 mps 750 mmHg 84%
    03:00 +16°C° 0 mm 2 mps 750 mmHg 85%
    04:00 +15°C° 0 mm 2 mps 750 mmHg 86%
    05:00 +15°C° 0 mm 2 mps 750 mmHg 87%
    06:00 +16°C° 0 mm 2 mps 750 mmHg 81%
    07:00 +18°C° 0 mm 2 mps 750 mmHg 75%
    08:00 +19°C° 0 mm 3 mps 750 mmHg 69%
    09:00 +21°C° 0 mm 3 mps 750 mmHg 63%
    10:00 +24°C° 0 mm 3 mps 750 mmHg 57%
    11:00 +26°C° 0 mm 3 mps 750 mmHg 51%
    12:00 +26°C° 0 mm 3 mps 750 mmHg 49%
    13:00 +27°C° 0 mm 4 mps 750 mmHg 47%
    14:00 +28°C° 0 mm 4 mps 750 mmHg 45%
    15:00 +27°C° 0 mm 3 mps 749 mmHg 50%
    16:00 +26°C° 0 mm 3 mps 749 mmHg 54%
    17:00 +24°C° 0 mm 2 mps 749 mmHg 59%
    18:00 +23°C° 0 mm 2 mps 749 mmHg 63%
    19:00 +21°C° 0 mm 2 mps 749 mmHg 67%
    20:00 +21°C° 0 mm 1 mps 750 mmHg 71%
    21:00 +20°C° 0 mm 1 mps 750 mmHg 74%
    22:00 +20°C° 0 mm 1 mps 750 mmHg 77%
    23:00 +19°C° 0 mm 1 mps 750 mmHg 79%

    Day after tomorrow, 21 September, Friday

    Time Temperature Precipitation Wind Pressure Humidity
    00:00 +19°C° 0 mm 1 mps 750 mmHg 81%
    01:00 +18°C° 0 mm 1 mps 750 mmHg 84%
    02:00 +18°C° 0 mm 1 mps 750 mmHg 86%
    03:00 +18°C° 0 mm 1 mps 750 mmHg 87%
    04:00 +18°C° 0 mm 1 mps 750 mmHg 89%
    05:00 +16°C° 0 mm 1 mps 750 mmHg 90%
    06:00 +19°C° 0 mm 1 mps 750 mmHg 85%
    07:00 +20°C° 0 mm 1 mps 750 mmHg 79%
    08:00 +22°C° 0 mm 1 mps 751 mmHg 74%
    09:00 +23°C° 0 mm 1 mps 751 mmHg 67%
    10:00 +25°C° 0 mm 1 mps 751 mmHg 61%
    11:00 +26°C° 0 mm 1 mps 751 mmHg 55%
    12:00 +27°C° 0 mm 1 mps 750 mmHg 51%
    13:00 +27°C° 0 mm 1 mps 750 mmHg 48%
    14:00 +28°C° 0 mm 1 mps 750 mmHg 45%
    15:00 +27°C° 0 mm 1 mps 750 mmHg 48%
    16:00 +26°C° 0 mm 1 mps 750 mmHg 51%
    17:00 +25°C° 0 mm 1 mps 750 mmHg 54%
    18:00 +24°C° 0 mm 1 mps 750 mmHg 57%
    19:00 +23°C° 0 mm 1 mps 750 mmHg 60%
    20:00 +20°C° 0 mm 2 mps 750 mmHg 62%
    21:00 +20°C° 0 mm 2 mps 750 mmHg 63%
    22:00 +19°C° 0 mm 2 mps 750 mmHg 64%
    23:00 +19°C° 0 mm 2 mps 750 mmHg 65%

    22 September, Saturday

    Time Temperature Precipitation Wind Pressure Humidity
    00:00 +18°C° 0 mm 2 mps 750 mmHg 66%
    01:00 +18°C° 0 mm 2 mps 749 mmHg 66%
    02:00 +18°C° 0 mm 2 mps 749 mmHg 66%
    03:00 +17°C° 0 mm 2 mps 749 mmHg 67%
    04:00 +17°C° 0 mm 2 mps 749 mmHg 67%
    05:00 +17°C° 0 mm 2 mps 749 mmHg 67%
    06:00 +18°C° 0 mm 3 mps 749 mmHg 64%
    07:00 +19°C° 0 mm 3 mps 749 mmHg 60%
    08:00 +20°C° 0 mm 3 mps 749 mmHg 57%
    09:00 +22°C° 0 mm 3 mps 749 mmHg 52%
    10:00 +25°C° 0 mm 3 mps 748 mmHg 48%
    11:00 +27°C° 0 mm 4 mps 748 mmHg 43%
    12:00 +27°C° 0 mm 4 mps 748 mmHg 42%
    13:00 +28°C° 0 mm 3 mps 748 mmHg 40%
    14:00 +28°C° 0 mm 3 mps 747 mmHg 39%
    15:00 +27°C° 0 mm 3 mps 747 mmHg 42%
    16:00 +26°C° 0 mm 2 mps 747 mmHg 44%
    17:00 +25°C° 0 mm 2 mps 746 mmHg 47%
    18:00 +24°C° 0 mm 2 mps 746 mmHg 48%
    19:00 +24°C° 0 mm 2 mps 746 mmHg 48%
    20:00 +23°C° 0 mm 2 mps 746 mmHg 49%
    21:00 +22°C° 0 mm 3 mps 745 mmHg 49%
    22:00 +21°C° 0 mm 3 mps 745 mmHg 49%
    23:00 +21°C° 0 mm 3 mps 745 mmHg 49%

    23 September, Sunday

    Time Temperature Precipitation Wind Pressure Humidity
    00:00 +21°C° 0 mm 3 mps 744 mmHg 48%
    01:00 +21°C° 0 mm 4 mps 744 mmHg 48%
    02:00 +21°C° 0 mm 4 mps 743 mmHg 47%
    03:00 +21°C° 0 mm 4 mps 743 mmHg 49%
    04:00 +20°C° 0 mm 4 mps 743 mmHg 50%
    05:00 +19°C° 0 mm 4 mps 743 mmHg 52%
    06:00 +20°C° 0 mm 4 mps 743 mmHg 53%
    07:00 +20°C° 0 mm 4 mps 742 mmHg 53%
    08:00 +20°C° 0 mm 5 mps 742 mmHg 54%
    09:00 +21°C° 0.1 mm 5 mps 742 mmHg 54%
    10:00 +21°C° 0.1 mm 5 mps 742 mmHg 54%
    11:00 +21°C° 0.1 mm 5 mps 743 mmHg 55%
    12:00 +19°C° 0.2 mm 6 mps 743 mmHg 60%
    13:00 +16°C° 0.2 mm 6 mps 743 mmHg 66%
    14:00 +14°C° 0.2 mm 7 mps 742 mmHg 71%
    15:00 +12°C° 0.5 mm 7 mps 743 mmHg 75%
    16:00 +10°C° 0.5 mm 7 mps 743 mmHg 78%
    17:00 +9°C° 0.5 mm 7 mps 743 mmHg 81%
    18:00 +9°C° 0.7 mm 7 mps 743 mmHg 82%
    19:00 +9°C° 0.7 mm 7 mps 743 mmHg 83%
    20:00 +8°C° 0.7 mm 6 mps 743 mmHg 84%
    21:00 +8°C° 0.6 mm 6 mps 743 mmHg 84%
    22:00 +8°C° 0.6 mm 6 mps 743 mmHg 85%
    23:00 +8°C° 0.6 mm 6 mps 743 mmHg 85%

    24 September, Monday

    Time Temperature Precipitation Wind Pressure Humidity
    00:00 +9°C° 0 mm 6 mps 743 mmHg 84%
    01:00 +9°C° 0 mm 6 mps 743 mmHg 84%
    02:00 +9°C° 0 mm 6 mps 743 mmHg 83%
    03:00 +9°C° 0 mm 6 mps 743 mmHg 83%
    04:00 +9°C° 0 mm 5 mps 743 mmHg 83%
    05:00 +9°C° 0 mm 5 mps 743 mmHg 83%
    06:00 +9°C° 0 mm 5 mps 744 mmHg 80%
    07:00 +10°C° 0 mm 5 mps 744 mmHg 78%
    08:00 +10°C° 0 mm 5 mps 744 mmHg 76%
    09:00 +12°C° 0 mm 5 mps 744 mmHg 72%
    10:00 +13°C° 0 mm 4 mps 744 mmHg 68%
    11:00 +14°C° 0 mm 4 mps 744 mmHg 63%
    12:00 +15°C° 0 mm 4 mps 744 mmHg 61%
    13:00 +17°C° 0 mm 3 mps 744 mmHg 58%
    14:00 +17°C° 0 mm 3 mps 744 mmHg 55%
    15:00 +17°C° 0 mm 2 mps 744 mmHg 59%
    16:00 +16°C° 0 mm 2 mps 744 mmHg 63%
    17:00 +15°C° 0 mm 1 mps 744 mmHg 66%
    18:00 +14°C° 0 mm 1 mps 744 mmHg 70%
    19:00 +12°C° 0 mm 0 mps 744 mmHg 73%
    20:00 +11°C° 0 mm 0 mps 744 mmHg 77%
    21:00 +12°C° 0 mm 1 mps 744 mmHg 78%
    22:00 +12°C° 0 mm 1 mps 744 mmHg 78%
    23:00 +11°C° 0 mm 1 mps 744 mmHg 79%
    Show more